Retour au catalogue

STARLINK-5629

ActifCommunicationsVLEO
NORAD 55419·PAYLOAD·🇺🇸 United States

Lancé Jan 31, 2023 depuis Vandenberg Space Force Base

Loading…

Prochains Passages (prochaines 24 heures)

TLE

FraisSource: CelesTrak SupGP

Époque: Sep 14, 2026, 22:18 UTC

1 55419C 23014AE  26257.92965278 -.00007382  00000+0 -61873-3 0  2570
2 55419  70.0010 327.2523 0003395 270.1358 323.5823 14.98327844    11

Suivez STARLINK-5629 en temps réel avec AllMySat

Download on the App Store